Location: Les Jeannots
(43.2262°N, 5.5774°E)
Time: 02:51:46
(UTC+00:00)

MetOp-B - Pass Details

Date: 05 July 2020
Orbit: 819 x 821 km, 98.7° (Epoch: 04 August)

Event Time Altitude Azimuth Distance (km) Brightness Sun altitude
Exits shadow 20:27:48 - 163° (SSE) 2,452 6.1 -10.4°
Reaches altitude 10° 20:27:55 10° 163° (SSE) 2,410 6.0 -10.4°
Maximum altitude 20:33:16 87° 74° (ENE) 828 4.2 -11.1°
Drops below altitude 10° 20:38:39 10° 347° (NNW) 2,427 7.6 -11.7°
Sets 20:41:00 0° 347° (NNW) 3,364 8.5 -12.0°
